Regional Weather Roundup
Issued by NWS Albany, NY

Home | Current Version | Previous Version | Text Only | Print | Product List | Glossary On
Versions: 1 2 3 4 5 6 7 8 9 10 11 12 13 14 15 16 17 18 19 20 21 22 23 24 25 26 27
000
ASUS41 KALY 251310
RWRALY

NEW YORK STATE HOURLY WEATHER ROUNDUP
NATIONAL WEATHER SERVICE ALBANY NY
900 AM EDT SUN JUN 25 2017

NOTE: "FAIR" INDICATES FEW OR NO CLOUDS BELOW 12,000 FEET WITH NO
SIGNIFICANT WEATHER AND/OR NO OBSTRUCTIONS TO VISIBILITY.

NYZ032-033-038>043-046>054-057>066-NYZ062>081-082-084-251400-
EAST


CITY           SKY/WX    TMP DP  RH WIND       PRES   REMARKS
ALBANY         PTSUNNY   67  56  67 S8        29.98R
GLENS FALLS    PTSUNNY   67  56  67 S8        29.95S
POUGHKEEPSIE   SUNNY     70  61  73 VRB5      29.98S
NEWBURGH       SUNNY     70  63  78 W7        30.01R
MONTGOMERY     SUNNY     71  62  73 CALM      29.99S
WHITE PLAINS   MOSUNNY   75  57  53 NW5       29.99S
ISLIP          PTSUNNY   77  56  48 VRB5      29.98S
NEW YORK CITY  PTSUNNY   76  59  55 CALM      29.98S
CENTRAL PARK   MOSUNNY   75  57  53 NE3       30.02S
$$

NYZ005>009-017-018-044>046-055-056-251400-
CENTRAL


CITY           SKY/WX    TMP DP  RH WIND       PRES   REMARKS
FULTON         SUNNY     68  58  70 SW10G16   29.96R
SYRACUSE       MOSUNNY   68  56  65 SW10      29.95R
ROME           SUNNY     65  57  75 W5        29.97R
ELMIRA         PTSUNNY   66  57  72 SW8       30.00R
BINGHAMTON     PTSUNNY   63  55  77 W6        30.01R
MONTICELLO     MOSUNNY   63  61  94 CALM      30.04R
$$

NYZ026>034-041>043-087-251400-
NORTH


CITY           SKY/WX    TMP DP  RH WIND       PRES   REMARKS
WATERTOWN      SUNNY     67  61  81 SW10      29.93R
FORT DRUM      NOT AVBL
OGDENSBURG     FAIR      69  57  65 SW3       29.91S
MASSENA        SUNNY     66  58  75 SW7       29.92S
SARANAC LAKE   MOSUNNY   62  54  74 MISG      29.93S
PLATTSBURGH    SUNNY     70  54  56 VRB3      29.91S
$$

NYZ001>004-010>016-019>021-085-251400-
WEST


CITY           SKY/WX    TMP DP  RH WIND       PRES   REMARKS
NIAGARA FALLS  SUNNY     68  53  58 SW13      29.96S
BUFFALO        MOSUNNY   68  51  54 SW13G23   29.97R
DUNKIRK        SUNNY     66  57  72 SW9       30.00S
JAMESTOWN      SUNNY     63  52  67 W10       30.03S
WELLSVILLE     MOSUNNY   64  53  67 VRB7      30.05R
ROCHESTER      MOSUNNY   68  56  65 W14       29.97R
PENN YAN       MOSUNNY   67  51  56 W13       30.00R
$$

             KEY
       WCI = WIND CHILL INDEX
       VSB = VISIBILITY
       HX  = HEAT INDEX
$$




USA.gov is the U.S. government's official web portal to all federal, state and local government web resources and services.